Hamilton Island, Australia

8:26 AM AEST on November 24, 2017 (GMT +1000)
Hamilton Island

Weather History for YBHM - November, 2013

Change the Weather History Date:

Friday, November 22, 2013

  Actual Average Record
Temperature  
Mean Temperature 80 °F -  
Max Temperature 86 °F - - ()
Min Temperature 73 °F - - ()
Cooling Degree Days 14    
Growing Degree Days 30 (Base 50)    
Moisture  
Dew Point 75 °F    
Average Humidity 85    
Maximum Humidity 100    
Minimum Humidity 62    
Precipitation  
Precipitation 8.35 in - - ()
Sea Level Pressure  
Sea Level Pressure 29.79 in    
Wind  
Wind Speed 9 mph ()    
Max Wind Speed 23 mph    
Max Gust Speed 36 mph    
T = Trace of Precipitation, MM = Missing Value Source: Averaged Metar Reports

Daily Weather History Graph

Daily Weather History Graph

Search for Another Location

Airport or City:

Trip Planner

Search our weather history database for the weather conditions in past years. The results will help you decide how hot, cold, wet, or windy it might be!

Date:

Astronomy

Nov. 22, 2013 Rise Set
Actual Time 5:15 AM AEST 6:25 PM AEST
Civil Twilight 4:51 AM AEST 6:49 PM AEST
Nautical Twilight 4:22 AM AEST 7:17 PM AEST
Astronomical Twilight 3:53 AM AEST 7:47 PM AEST
Moon 10:03 PM AEST (11/22) 8:46 AM AEST (11/22)
Length of Visible Light 13h 58m
Length of Day
13h 10m
Waning Gibbous, 83% of the Moon is Illuminated
Nov 22
Waning Gibbous
Nov 26
Last Quarter
Dec 3
New
Dec 10
First Quarter
Dec 17
Full

Hourly Weather History & Observations

Time (AEST) Temp. Heat Index Dew Point Humidity Pressure Visibility Wind Dir Wind Speed Gust Speed Precip Events Conditions
12:00 AM 78 °F - 75 °F 88% 29.82 in - NNE 6.9 mph - -  
12:00 AM 78.8 °F - 75.2 °F 89% 29.83 in - NNE 6.9 mph - N/A   Unknown
12:30 AM 78.8 °F - 75.2 °F 89% 29.80 in - NNE 6.9 mph - N/A   Unknown
1:00 AM 78.8 °F - 75.2 °F 89% 29.80 in - NNE 8.1 mph - N/A   Unknown
1:30 AM 78.8 °F - 75.2 °F 89% 29.80 in - NNE 5.8 mph - N/A   Unknown
2:00 AM 78.8 °F - 75.2 °F 89% 29.77 in - North 2.3 mph - N/A   Unknown
2:30 AM 78.8 °F - 75.2 °F 89% 29.77 in - NNE 5.8 mph - N/A   Unknown
3:00 AM 78 °F - 75 °F 87% 29.78 in - ENE 4.6 mph - -  
3:00 AM 77.0 °F - 75.2 °F 94% 29.77 in - ENE 4.6 mph - N/A   Unknown
3:30 AM 78.8 °F - 75.2 °F 89% 29.77 in - North 4.6 mph - N/A   Unknown
4:00 AM 77.0 °F - 75.2 °F 94% 29.77 in - NE 6.9 mph - N/A   Unknown
4:30 AM 77.0 °F - 75.2 °F 94% 29.77 in - NNE 5.8 mph - N/A   Unknown
5:00 AM 77.0 °F - 75.2 °F 94% 29.80 in - NNE 6.9 mph - N/A   Unknown
5:30 AM 78.8 °F - 75.2 °F 89% 29.80 in - NE 5.8 mph - N/A   Unknown
6:00 AM 78 °F - 75 °F 88% 29.82 in - ENE 6.9 mph - -  
6:00 AM 78.8 °F - 75.2 °F 89% 29.83 in - ENE 6.9 mph - N/A   Unknown
6:30 AM 80.6 °F 86.2 °F 75.2 °F 84% 29.83 in - ENE 8.1 mph - N/A   Unknown
7:00 AM 82.4 °F 89.5 °F 75.2 °F 79% 29.83 in - ENE 11.5 mph - N/A   Unknown
7:30 AM 84.2 °F 90.9 °F 73.4 °F 70% 29.83 in - NE 10.4 mph - N/A   Unknown
8:00 AM 82.4 °F 88.2 °F 73.4 °F 74% 29.83 in - NE 12.7 mph - N/A   Unknown
8:30 AM 84.2 °F 90.9 °F 73.4 °F 70% 29.83 in - NE 11.5 mph - N/A   Unknown
9:00 AM 86 °F - 75 °F 62% 29.85 in - NE 10.4 mph - -  
9:00 AM 86.0 °F 95.1 °F 75.2 °F 70% 29.86 in - NE 10.4 mph - N/A   Unknown
9:30 AM 82.4 °F 88.2 °F 73.4 °F 74% 29.86 in - East 12.7 mph - N/A   Unknown
10:00 AM 80.6 °F 86.2 °F 75.2 °F 84% 29.83 in - East 17.3 mph - N/A   Unknown
10:30 AM 78.8 °F - 77.0 °F 94% 29.83 in - East 13.8 mph - N/A   Unknown
11:00 AM 78.8 °F - 75.2 °F 89% 29.80 in - East 19.6 mph - N/A   Unknown
11:30 AM 80.6 °F 86.2 °F 75.2 °F 84% 29.80 in - East 18.4 mph - N/A   Unknown
12:00 PM 82 °F - 74 °F 72% 29.80 in - NE 16.1 mph - -  
12:00 PM 82.4 °F 89.5 °F 75.2 °F 79% 29.80 in - NE 16.1 mph - N/A   Unknown
12:30 PM 80.6 °F 86.2 °F 75.2 °F 84% 29.80 in - NE 15.0 mph - N/A   Unknown
1:00 PM 80.6 °F 86.2 °F 75.2 °F 84% 29.80 in - NE 16.1 mph - N/A   Unknown
1:30 PM 80.6 °F 85.4 °F 73.4 °F 79% 29.80 in - NNE 12.7 mph - N/A   Unknown
2:00 PM 80.6 °F 86.2 °F 75.2 °F 84% 29.77 in - NE 10.4 mph - N/A   Unknown
2:30 PM 80.6 °F 86.2 °F 75.2 °F 84% 29.77 in - NE 11.5 mph - N/A   Unknown
3:00 PM 80 °F - 74 °F 77% 29.75 in - NE 11.5 mph - -  
3:00 PM 80.6 °F 85.4 °F 73.4 °F 79% 29.74 in - NE 11.5 mph - N/A   Unknown
3:30 PM 80.6 °F 86.2 °F 75.2 °F 84% 29.74 in - NE 10.4 mph - N/A   Unknown
4:00 PM 80.6 °F 86.2 °F 75.2 °F 84% 29.74 in - NE 12.7 mph - N/A   Unknown
4:30 PM 80.6 °F 86.2 °F 75.2 °F 84% 29.74 in - NE 13.8 mph - N/A   Unknown
5:00 PM 80.6 °F 86.2 °F 75.2 °F 84% 29.74 in - NE 13.8 mph - N/A   Unknown
5:30 PM 80.6 °F 85.4 °F 73.4 °F 79% 29.74 in - NNE 11.5 mph - N/A   Unknown
6:00 PM 80 °F - 75 °F 79% 29.76 in - NE 9.2 mph - -  
6:00 PM 78.8 °F - 75.2 °F 89% 29.77 in - NE 9.2 mph - N/A   Unknown
6:30 PM 78.8 °F - 73.4 °F 83% 29.77 in - NE 12.7 mph - N/A   Unknown
7:00 PM 78.8 °F - 75.2 °F 89% 29.77 in - NNE 11.5 mph - N/A   Unknown
7:30 PM 78.8 °F - 75.2 °F 89% 29.80 in - NNE 12.7 mph - N/A   Unknown
8:00 PM 78.8 °F - 75.2 °F 89% 29.80 in - NNE 8.1 mph - N/A   Unknown
8:30 PM 78.8 °F - 73.4 °F 83% 29.80 in - NE 6.9 mph - N/A   Unknown
9:00 PM 78 °F - 73 °F 80% 29.80 in - NNE 10.4 mph - -  
9:00 PM 78.8 °F - 73.4 °F 83% 29.80 in - NNE 10.4 mph - N/A   Unknown
9:30 PM 78.8 °F - 73.4 °F 83% 29.80 in - NNE 5.8 mph - N/A   Unknown
10:00 PM 78.8 °F - 75.2 °F 89% 29.80 in - NE 8.1 mph - N/A   Unknown
10:12 PM 73.4 °F - 68.0 °F 83% 29.80 in - SE 20.7 mph 35.7 mph N/A   Unknown
10:30 PM 75.2 °F - 71.6 °F 89% 29.80 in - ESE 17.3 mph - N/A   Unknown
11:00 PM 73.4 °F - 73.4 °F 100% 29.80 in - SE 18.4 mph - N/A   Unknown
11:30 PM 73.4 °F - 73.4 °F 100% 29.77 in - South 17.3 mph - N/A   Unknown
11:47 PM 73.4 °F - 73.4 °F 100% 29.77 in - SE 23.0 mph - N/A   Unknown